Back to catalog

NOAA 16 DEB

AlivePO
NORAD 41405·DEBRIS·🇺🇸 United States

Launched Sep 21, 2000 from Vandenberg Space Force Base

Loading…

Next Passes (next 24 hours)

TLE

FreshSource: Space-Track

Epoch: Sep 14, 2026, 08:54 UTC

1 41405U 00055KJ  26257.37135901  .00011390  00000-0  21965-2 0  9994
2 41405  98.8545  44.9455 0008915  78.7887 281.4315 14.63647297548510

Track NOAA 16 DEB in real time with AllMySat

Download on the App Store